Volver al catálogo

COSMOS 1275 DEB

ActivoPO
NORAD 39961·DEBRIS·🇷🇺 Russia

Lanzado Jun 4, 1981 desde Plesetsk Cosmodrome

Loading…

Próximos Pases (próximas 24 horas)

TLE

EnvejeciendoSource: Space-Track

Época: Sep 5, 2026, 11:52 UTC

1 39961U 81053NX  26248.49485250  .00000897  00000-0  63260-3 0  9998
2 39961  82.7701 150.2648 0055957  65.6761  53.0617 13.96203414621692

Sigue COSMOS 1275 DEB en tiempo real con AllMySat

Download on the App Store